User: anonymous   Login
Location: Unspecified
(0.0000°N, 0.0000°E)
Time: 03:00:49
(UTC+00:00)
Language:

TBA - TO BE ASSIGNED - Orbit

View from above orbital plane
View from above orbital plane
View from above satellite
View from above satellite

Ground track
Ground track

The orbit is defined by the following mean orbital elements,

1 68996U          26145.27557166 +.00000000 +00000-0 +20518-3 0 00007
2 68996  97.7384  43.1392 0003141 204.3207 155.7863 14.91176060    07
Epoch (UTC): 25 May 2026 06:36:49
Eccentricity: 0.0003141
inclination: 97.7384°
perigee height: 592 km
apogee height: 596 km
right ascension of ascending node: 43.1392°
argument of perigee: 204.3207°
revolutions per day: 14.91176060
mean anomaly at epoch: 155.7863°

The dashed part of the orbit path shows where the satellite is in the earth's shadow,  

DLR